Location: *
(37.5724°S, 58.0067°E)
Time: 10:27:36
(UTC+00:00)

Cosmos 1726 - Pass Details

Date: 19 January 2021
Orbit: 480 x 499 km, 82.5° (Epoch: 27 February)

Event Time Altitude Azimuth Distance (km) Brightness Sun altitude
Rises 23:44:15 0° 172° (S) 2,585 6.6 -14.8°
Reaches altitude 10° 23:46:47 10° 155° (SSE) 1,696 5.9 -14.4°
Maximum altitude 23:49:38 21° 104° (ESE) 1,165 4.8 -14.0°
Drops below altitude 10° 23:52:28 10° 54° (NE) 1,683 5.0 -13.5°
Sets 23:54:57 0° 37° (NE) 2,558 5.7 -13.2°
